Plattsburgh, NY

1:54 PM EDT on September 28, 2016 (GMT -0400)
Plattsburgh International

Weather History for KPBG - February, 2012

Change the Weather History Date:

Friday, February 3, 2012

  Actual Average Record
Temperature  
Mean Temperature 21 °F 17 °F  
Max Temperature 31 °F 28 °F 59 °F (1991)
Min Temperature 10 °F 7 °F -21 °F (1971)
Degree Days  
Heating Degree Days 44 48  
Month to date heating degree days 115 144  
Since 1 July heating degree days 3805 4520  
Cooling Degree Days 0 0  
Month to date cooling degree days 0  
Year to date cooling degree days 0  
Moisture  
Dew Point 17 °F    
Average Humidity 78    
Maximum Humidity 92    
Minimum Humidity 63    
Precipitation  
Precipitation T in - 0.70 in (1983)
Month to date precipitation 0.14  
Year to date precipitation 1.74  
Sea Level Pressure  
Sea Level Pressure 30.35 in    
Wind  
Wind Speed 2 mph (SSE)    
Max Wind Speed 13 mph    
Max Gust Speed 15 mph    
Visibility 10 miles    
Events Snow    
T = Trace of Precipitation, MM = Missing Value Source: NWS Daily Summary

Daily Weather History Graph

Daily Weather History Graph

Search for Another Location

Airport or City:

Trip Planner

Search our weather history database for the weather conditions in past years. The results will help you decide how hot, cold, wet, or windy it might be!

Date:

Astronomy

Feb. 03, 2012 Rise Set
Actual Time 7:11 AM EST 5:04 PM EST
Civil Twilight 6:40 AM EST 5:35 PM EST
Nautical Twilight 6:05 AM EST 6:10 PM EST
Astronomical Twilight 5:31 AM EST 6:44 PM EST
Moon 12:58 PM EST (2/3) 3:50 AM EST (2/3)
Length of Visible Light 10h 55m
Length of Day
9h 53m
Waxing Gibbous, 81% of the Moon is Illuminated
Feb 3
Waxing Gibbous
Feb 7
Full
Feb 14
Last Quarter
Feb 21
New
Feb 29
First Quarter

Hourly Weather History & Observations

Time (EST) Temp. Windchill Dew Point Humidity Pressure Visibility Wind Dir Wind Speed Gust Speed Precip Events Conditions
12:53 AM 17.1 °F - 12.9 °F 84% 30.36 in 9.0 mi Calm Calm - 0.00 in   Overcast
1:53 AM 17.1 °F - 14.0 °F 88% 30.38 in 10.0 mi Calm Calm - N/A   Overcast
2:53 AM 14.0 °F 8.2 °F 10.9 °F 88% 30.38 in 10.0 mi SW 3.5 mph - N/A   Mostly Cloudy
3:05 AM 14.0 °F - 10.4 °F 86% 30.36 in 10.0 mi Calm Calm - N/A   Scattered Clouds
3:53 AM 12.9 °F - 9.0 °F 84% 30.38 in 9.0 mi Calm Calm - N/A   Clear
4:53 AM 10.9 °F - 8.1 °F 88% 30.39 in 10.0 mi Calm Calm - N/A   Clear
5:53 AM 10.9 °F - 7.0 °F 84% 30.40 in 10.0 mi Calm Calm - N/A   Clear
6:53 AM 10.0 °F - 6.1 °F 84% 30.43 in 10.0 mi Calm Calm - N/A   Clear
7:53 AM 14.0 °F - 10.9 °F 88% 30.44 in 10.0 mi Calm Calm - N/A   Overcast
8:53 AM 19.9 °F 14.9 °F 16.0 °F 85% 30.44 in 10.0 mi SSE 3.5 mph - N/A   Overcast
9:53 AM 24.1 °F 19.7 °F 16.0 °F 71% 30.44 in 10.0 mi SE 3.5 mph - N/A   Partly Cloudy
10:53 AM 28.0 °F 22.8 °F 17.1 °F 63% 30.43 in 10.0 mi Variable 4.6 mph - N/A   Overcast
11:53 AM 28.0 °F - 17.1 °F 63% 30.40 in 10.0 mi Calm Calm - 0.00 in   Overcast
12:53 PM 28.0 °F 20.0 °F 18.0 °F 66% 30.38 in 10.0 mi SE 8.1 mph - N/A   Overcast
1:53 PM 28.9 °F 19.2 °F 19.0 °F 67% 30.35 in 10.0 mi SE 11.5 mph - N/A   Overcast
2:53 PM 28.9 °F 20.4 °F 19.0 °F 67% 30.33 in 10.0 mi SSE 9.2 mph - N/A   Overcast
3:53 PM 30.0 °F 25.2 °F 21.0 °F 69% 30.32 in 10.0 mi SSE 4.6 mph - N/A   Overcast
4:53 PM 30.0 °F 26.5 °F 21.0 °F 69% 30.31 in 10.0 mi SSE 3.5 mph - N/A   Overcast
5:53 PM 28.9 °F 23.9 °F 21.0 °F 72% 30.30 in 10.0 mi SE 4.6 mph - N/A   Overcast
6:53 PM 30.9 °F - 21.9 °F 69% 30.30 in 10.0 mi Calm Calm - N/A   Overcast
7:53 PM 30.0 °F - 23.0 °F 75% 30.30 in 10.0 mi Calm Calm - N/A   Overcast
8:53 PM 28.9 °F - 24.1 °F 82% 30.29 in 10.0 mi Calm Calm - N/A   Overcast
9:53 PM 30.0 °F - 24.1 °F 79% 30.29 in 10.0 mi Calm Calm - N/A   Overcast
10:18 PM 28.4 °F - 24.8 °F 86% 30.27 in 9.0 mi Calm Calm - 0.00 in Snow Light Snow
10:27 PM 28.4 °F - 24.8 °F 86% 30.27 in 9.0 mi Calm Calm - 0.00 in   Overcast
10:53 PM 28.9 °F - 25.0 °F 85% 30.27 in 10.0 mi Calm Calm - 0.00 in   Overcast
11:53 PM 28.9 °F - 25.0 °F 85% 30.25 in 10.0 mi Calm Calm - 0.00 in   Overcast